{"data":{"norad_id":65422,"epoch":"2026-09-20T15:53:59.522208Z","epoch_age_seconds":100819,"freshness":"FRESH","line1":"1 65422U 25192U   26263.66249447  .00012318  00000+0  37521-3 0  9994","line2":"2 65422  53.1595  44.7159 0001470  92.8363 267.2808 15.34391455 59267","mean_motion":15.34391455,"eccentricity":0.000147,"inclination_deg":53.1595,"raan_deg":44.7159,"arg_perigee_deg":92.8363,"mean_anomaly_deg":267.2808,"bstar":0.00037521,"rev_number":5926,"period_min":93.848280717908,"perigee_km":461.72303061698,"apogee_km":463.73424511451,"semimajor_km":6840.8656378657,"source":"CELESTRAK","updated_at":"2026-09-21T09:00:35.605914Z"}}